Andrews AFB, MD

10:58 PM EDT on August 20, 2017 (GMT -0400)
Andrews Air Force Base-Naf

Weather History for KADW - March, 2014

Change the Weather History Date:

Tuesday, March 11, 2014

  Actual Average Record
Temperature  
Mean Temperature 58 °F -  
Max Temperature 70 °F 49 °F 72 °F (2009)
Min Temperature 46 °F 30 °F 21 °F (2003)
Degree Days  
Heating Degree Days 8    
Growing Degree Days 8 (Base 50)    
Moisture  
Dew Point 34 °F    
Average Humidity 44    
Maximum Humidity 62    
Minimum Humidity 30    
Precipitation  
Precipitation 0.00 in - - ()
Sea Level Pressure  
Sea Level Pressure 29.69 in    
Wind  
Wind Speed 6 mph (SSW)    
Max Wind Speed 8 mph    
Max Gust Speed -    
Visibility 10 miles    
Events      
Averages and records for this station are not official NWS values.
T = Trace of Precipitation, MM = Missing Value Source: NWS Daily Summary

Daily Weather History Graph

Daily Weather History Graph

Search for Another Location

Airport or City:

Trip Planner

Search our weather history database for the weather conditions in past years. The results will help you decide how hot, cold, wet, or windy it might be!

Date:

Astronomy

Mar. 11, 2014 Rise Set
Actual Time 7:24 AM EDT 7:10 PM EDT
Civil Twilight 6:58 AM EDT 7:37 PM EDT
Nautical Twilight 6:27 AM EDT 8:07 PM EDT
Astronomical Twilight 5:56 AM EDT 8:39 PM EDT
Moon 2:47 PM EDT (3/11) 4:14 AM EDT (3/11)
Length of Visible Light 12h 38m
Length of Day
11h 45m
Waxing Gibbous, 78% of the Moon is Illuminated
Mar 11
Waxing Gibbous
Mar 16
Full
Mar 23
Last Quarter
Mar 30
New
Apr 7
First Quarter

Hourly Weather History & Observations

Time (EDT) Temp. Dew Point Humidity Pressure Visibility Wind Dir Wind Speed Gust Speed Precip Events Conditions
12:58 AM 48.4 °F 28.0 °F 45% 29.68 in 10.0 mi SW 6.9 mph - N/A   Clear
1:58 AM 50.2 °F 29.5 °F 45% 29.68 in 10.0 mi WSW 6.9 mph - N/A   Clear
2:58 AM 48.2 °F 29.3 °F 48% 29.68 in 10.0 mi SW 5.8 mph - N/A   Clear
3:58 AM 48.9 °F 30.0 °F 48% 29.67 in 10.0 mi SW 5.8 mph - N/A   Clear
4:58 AM 48.4 °F 30.4 °F 50% 29.68 in 10.0 mi SSW 8.1 mph - N/A   Clear
5:58 AM 49.8 °F 30.0 °F 47% 29.69 in 10.0 mi SW 4.6 mph - N/A   Clear
6:58 AM 49.5 °F 30.2 °F 48% 29.70 in 10.0 mi SW 3.5 mph - N/A   Clear
7:58 AM 46.0 °F 33.8 °F 62% 29.73 in 10.0 mi Calm Calm - N/A   Mostly Cloudy
8:58 AM 50.7 °F 31.3 °F 47% 29.74 in 10.0 mi SSW 3.5 mph - N/A   Scattered Clouds
9:58 AM 51.8 °F 38.5 °F 60% 29.74 in 10.0 mi WSW 5.8 mph - N/A   Clear
10:58 AM 56.1 °F 34.5 °F 44% 29.75 in 10.0 mi SSW 3.5 mph - N/A   Clear
11:58 AM 58.3 °F 36.9 °F 45% 29.74 in 10.0 mi SW 4.6 mph - N/A   Clear
12:58 PM 61.7 °F 36.1 °F 39% 29.73 in 10.0 mi West 3.5 mph - N/A   Scattered Clouds
1:58 PM 64.8 °F 36.7 °F 35% 29.70 in 10.0 mi SW 3.5 mph - N/A   Partly Cloudy
2:58 PM 65.8 °F 35.4 °F 32% 29.69 in 10.0 mi WSW 6.9 mph - N/A   Partly Cloudy
3:58 PM 67.8 °F 36.1 °F 31% 29.67 in 10.0 mi WSW 5.8 mph - N/A   Clear
4:58 PM 69.4 °F 36.5 °F 30% 29.66 in 10.0 mi West 8.1 mph - N/A   Clear
5:58 PM 69.1 °F 36.7 °F 30% 29.66 in 10.0 mi West 2.3 mph - N/A   Clear
6:58 PM 62.6 °F 38.5 °F 41% 29.67 in 10.0 mi ESE 8.1 mph - N/A   Clear
7:58 PM 57.4 °F 36.5 °F 46% 29.68 in 10.0 mi East 6.9 mph - N/A   Clear
8:58 PM 55.4 °F 35.8 °F 48% 29.68 in 10.0 mi ESE 5.8 mph - N/A   Clear
9:58 PM 54.9 °F 34.5 °F 46% 29.68 in 10.0 mi SE 5.8 mph - N/A   Clear
10:58 PM 53.4 °F 33.8 °F 47% 29.67 in 10.0 mi SSE 6.9 mph - N/A   Clear
11:58 PM 51.6 °F 33.4 °F 50% 29.66 in 10.0 mi ESE 2.3 mph - N/A   Clear